{"data":{"norad_id":43689,"epoch":"2026-05-25T02:55:14.954304Z","epoch_age_seconds":54636,"freshness":"FRESH","line1":"1 43689U 18087A   26145.12170086  .00000082  00000+0  57139-4 0  9995","line2":"2 43689  98.6655 205.1453 0000773 151.2544 208.8676 14.21504906391552","mean_motion":14.21504906,"eccentricity":7.73e-5,"inclination_deg":98.6655,"raan_deg":205.1453,"arg_perigee_deg":151.2544,"mean_anomaly_deg":208.8676,"bstar":5.7139e-5,"rev_number":39155,"period_min":101.30109251976,"perigee_km":819.71137395895,"apogee_km":820.82424734268,"semimajor_km":7198.4048106508,"source":"CELESTRAK","updated_at":"2026-05-25T13:38:12.249945Z"}}